Location: Blangy-Tronville
(49.8790°N, 2.4226°E)
Time: 01:44:45
(UTC+00:00)

Cosmos 1400 Rocket - Pass Details

Date: 18 November 2025
Orbit: 477 x 514 km, 81.1° (Epoch: 04 December)

Event Time Altitude Azimuth Distance (km) Brightness Sun altitude
Rises 18:38:18 0° 207° (SSW) 2,618 6.6 -24.7°
Reaches altitude 10° 18:40:30 10° 214° (SSW) 1,733 5.8 -25.1°
Maximum altitude 18:44:09 43° 287° (WNW) 722 3.8 -25.7°
Enters shadow 18:44:37 41° 308° (NW) 749 3.8 -25.8°
